Lid_Strength_Index
4 5 4 4 4 3 2 2 1 1 1 1 1 0 0 1 1 1 1 1 1 1
5 5 5 4 3 3 2 1 1 1 1 1 1 1 1 2 1 1 1 1 1 1
6 5 5 4 4 3 2 2 2 1 1 2 2 2 2 2 2 1 1 1 1 1
7 7 6 6 5 4 3 2 2 2 2 2 2 1 2 2 2 2 1 1 1 2
8 7 7 7 6 5 5 4 3 3 2 1 1 2 3 3 2 2 2 2 2 2
8 8 8 7 6 5 5 5 5 4 3 2 2 2 3 3 3 2 2 2 2 2
8 7 7 7 7 6 6 7 6 5 5 4 3 3 2 2 2 2 2 1 1 1
8 8 8 8 8 7 7 7 7 7 7 6 5 4 3 2 2 2 2 1 1 1
9 9 9 9 9 10 9 9 8 8 8 7 6 6 6 3 2 3 2 2 2 1
10 11 11 10 11 11 10 10 9 8 8 8 6 7 8 7 4 4 3 2 2 2
11 12 11 11 11 11 10 10 10 9 9 8 6 7 8 8 5 4 2 2 2 2
12 12 12 11 11 10 9 9 9 8 7 6 6 7 7 8 5 3 2 1 1 2
11 11 11 11 10 9 9 9 8 8 7 6 6 7 8 8 5 2 2 2 2 6
11 11 10 10 9 9 9 8 8 7 6 6 6 5 8 8 4 2 2 3 3 3